Time,TemperatureF,DewpointF,PressureIn,WindDirection,WindDirectionDegrees,WindSpeedMPH,WindSpeedGustMPH,Humidity,HourlyPrecipIn,Conditions,Clouds,dailyrainin,SoftwareType,DateUTC
2013-02-14 00:22:00,32.0,29.0,29.90,WSW,257,2.0,5.0,89,0.00,,,0.03,,2013-02-14 05:22:00,
2013-02-14 00:32:00,32.0,29.0,29.90,SSW,211,1.0,7.0,89,0.00,,,0.03,,2013-02-14 05:32:00,
2013-02-14 00:42:00,32.0,29.0,29.90,SSW,211,1.0,7.0,89,0.00,,,0.03,,2013-02-14 05:42:00,
2013-02-14 00:52:00,32.0,29.0,29.90,South,182,2.0,4.0,90,0.00,,,0.03,,2013-02-14 05:52:00,
2013-02-14 01:02:00,31.0,28.0,29.90,South,187,2.0,3.0,90,0.00,,,0.03,,2013-02-14 06:02:00,
2013-02-14 01:11:00,32.0,30.0,29.90,SW,220,3.0,7.0,91,0.00,,,0.03,,2013-02-14 06:11:00,
2013-02-14 01:21:00,32.0,30.0,29.90,SW,220,3.0,7.0,91,0.00,,,0.03,,2013-02-14 06:21:00,
2013-02-14 01:32:00,32.0,30.0,29.91,SSW,208,2.0,7.0,91,0.00,,,0.03,,2013-02-14 06:32:00,
2013-02-14 01:42:00,32.0,30.0,29.91,SSW,208,2.0,7.0,91,0.00,,,0.03,,2013-02-14 06:42:00,
2013-02-14 01:52:00,32.0,30.0,29.91,SSE,163,2.0,6.0,91,0.00,,,0.03,,2013-02-14 06:52:00,
2013-02-14 02:01:00,32.0,30.0,29.91,SSE,167,3.0,8.0,91,0.00,,,0.03,,2013-02-14 07:01:00,
2013-02-14 02:11:00,32.0,30.0,29.91,SSE,168,3.0,7.0,91,0.00,,,0.03,,2013-02-14 07:11:00,
2013-02-14 02:21:00,32.0,30.0,29.91,SSE,168,3.0,7.0,91,0.00,,,0.03,,2013-02-14 07:21:00,
2013-02-14 02:32:00,32.0,30.0,29.91,SSE,168,3.0,7.0,91,0.00,,,0.03,,2013-02-14 07:32:00,
2013-02-14 02:42:00,32.0,30.0,29.91,SSE,168,3.0,7.0,91,0.00,,,0.03,,2013-02-14 07:42:00,
2013-02-14 02:52:00,32.0,30.0,29.91,South,178,2.0,7.0,91,0.00,,,0.03,,2013-02-14 07:52:00,
2013-02-14 03:01:00,32.0,30.0,29.91,SSW,194,3.0,8.0,92,0.00,,,0.03,,2013-02-14 08:01:00,
2013-02-14 03:11:00,32.0,30.0,29.91,SSW,194,3.0,8.0,92,0.00,,,0.03,,2013-02-14 08:11:00,
2013-02-14 03:21:00,32.0,30.0,29.91,SSW,192,3.0,9.0,92,0.00,,,0.03,,2013-02-14 08:21:00,
2013-02-14 03:32:00,32.0,30.0,29.91,SSW,192,3.0,9.0,92,0.00,,,0.03,,2013-02-14 08:32:00,
2013-02-14 03:43:00,32.0,30.0,29.91,SSW,192,3.0,9.0,92,0.00,,,0.03,,2013-02-14 08:43:00,
2013-02-14 03:52:00,32.0,30.0,29.91,SSW,192,3.0,9.0,92,0.00,,,0.03,,2013-02-14 08:52:00,
2013-02-14 04:02:00,32.0,30.0,29.91,SSW,192,3.0,9.0,92,0.00,,,0.03,,2013-02-14 09:02:00,
2013-02-14 09:32:00,34.0,33.0,29.92,South,175,6.0,12.0,96,0.00,,,0.03,,2013-02-14 14:32:00,
2013-02-14 09:42:00,34.0,33.0,29.92,South,175,6.0,12.0,96,0.00,,,0.03,,2013-02-14 14:42:00,
2013-02-14 09:52:00,34.0,33.0,29.92,South,175,6.0,12.0,96,0.00,,,0.03,,2013-02-14 14:52:00,
2013-02-14 10:02:00,34.0,33.0,29.92,South,175,6.0,12.0,96,0.00,,,0.03,,2013-02-14 15:02:00,
2013-02-14 10:11:00,35.0,34.0,29.91,SE,142,3.0,8.0,95,0.01,,,0.04,,2013-02-14 15:11:00,
2013-02-14 10:22:00,35.0,34.0,29.91,SE,142,3.0,8.0,95,0.01,,,0.04,,2013-02-14 15:22:00,
2013-02-14 10:32:00,35.0,33.0,29.91,South,186,3.0,12.0,94,0.01,,,0.04,,2013-02-14 15:32:00,
2013-02-14 10:42:00,35.0,33.0,29.91,South,186,3.0,12.0,94,0.01,,,0.04,,2013-02-14 15:42:00,
2013-02-14 10:52:00,35.0,33.0,29.91,SSW,195,4.0,11.0,94,0.01,,,0.04,,2013-02-14 15:52:00,
2013-02-14 11:02:00,36.0,34.0,29.91,SSW,212,2.0,6.0,94,0.00,,,0.04,,2013-02-14 16:02:00,
2013-02-14 11:11:00,36.0,34.0,29.90,ESE,120,5.0,9.0,92,0.00,,,0.04,,2013-02-14 16:11:00,
2013-02-14 11:21:00,36.0,34.0,29.90,ESE,120,5.0,9.0,92,0.00,,,0.04,,2013-02-14 16:21:00,
2013-02-14 11:32:00,37.0,35.0,29.90,SSE,165,3.0,11.0,92,0.00,,,0.04,,2013-02-14 16:32:00,
2013-02-14 11:42:00,37.0,35.0,29.90,SSE,165,3.0,11.0,92,0.00,,,0.04,,2013-02-14 16:42:00,
2013-02-14 11:52:00,37.0,34.0,29.89,SE,135,7.0,13.0,90,0.01,,,0.05,,2013-02-14 16:52:00,
2013-02-14 12:01:00,39.0,36.0,29.89,SSE,155,7.0,12.0,88,0.01,,,0.05,,2013-02-14 17:01:00,
2013-02-14 12:11:00,41.0,37.0,29.88,SSW,208,5.0,9.0,86,0.01,,,0.05,,2013-02-14 17:11:00,
2013-02-14 12:21:00,41.0,37.0,29.88,SSW,208,5.0,9.0,86,0.01,,,0.05,,2013-02-14 17:21:00,
2013-02-14 12:32:00,42.0,37.0,29.88,SSW,212,7.0,14.0,82,0.01,,,0.05,,2013-02-14 17:32:00,
2013-02-14 12:42:00,42.0,37.0,29.88,SSW,212,7.0,14.0,82,0.01,,,0.05,,2013-02-14 17:42:00,
2013-02-14 12:52:00,43.0,37.0,29.87,SSW,205,8.0,15.0,79,0.00,,,0.05,,2013-02-14 17:52:00,
2013-02-14 13:01:00,44.0,37.0,29.86,SSE,168,8.0,17.0,76,0.00,,,0.05,,2013-02-14 18:01:00,
2013-02-14 13:11:00,44.0,37.0,29.86,SSE,168,8.0,17.0,76,0.00,,,0.05,,2013-02-14 18:11:00,
2013-02-14 13:23:00,45.0,38.0,29.86,South,182,6.0,12.0,75,0.00,,,0.05,,2013-02-14 18:23:00,
2013-02-14 13:32:00,46.0,39.0,29.85,South,191,6.0,15.0,75,0.00,,,0.05,,2013-02-14 18:32:00,
2013-02-14 13:42:00,46.0,39.0,29.85,South,191,6.0,15.0,75,0.00,,,0.05,,2013-02-14 18:42:00,
2013-02-14 13:52:00,46.0,38.0,29.85,SSE,151,7.0,15.0,73,0.00,,,0.05,,2013-02-14 18:52:00,
2013-02-14 14:02:00,48.0,38.0,29.84,SW,216,9.0,18.0,69,0.00,,,0.05,,2013-02-14 19:02:00,
2013-02-14 14:11:00,48.0,38.0,29.84,SW,216,9.0,18.0,69,0.00,,,0.05,,2013-02-14 19:11:00,
2013-02-14 14:22:00,48.0,38.0,29.84,SW,216,9.0,18.0,69,0.00,,,0.05,,2013-02-14 19:22:00,
2013-02-14 14:32:00,48.0,38.0,29.84,SSE,161,6.0,16.0,68,0.00,,,0.05,,2013-02-14 19:32:00,
2013-02-14 14:42:00,48.0,38.0,29.84,SSE,161,6.0,16.0,68,0.00,,,0.05,,2013-02-14 19:42:00,
2013-02-14 14:52:00,48.0,38.0,29.84,SSE,161,6.0,16.0,68,0.00,,,0.05,,2013-02-14 19:52:00,
2013-02-14 15:01:00,49.0,39.0,29.83,WSW,258,2.0,13.0,68,0.00,,,0.05,,2013-02-14 20:01:00,
2013-02-14 15:11:00,49.0,39.0,29.83,WSW,258,2.0,13.0,68,0.00,,,0.05,,2013-02-14 20:11:00,
2013-02-14 15:21:00,49.0,39.0,29.83,WSW,258,2.0,13.0,68,0.00,,,0.05,,2013-02-14 20:21:00,
2013-02-14 15:32:00,51.0,38.0,29.83,SSE,166,6.0,14.0,62,0.00,,,0.05,,2013-02-14 20:32:00,
2013-02-14 15:42:00,51.0,38.0,29.83,SSE,166,6.0,14.0,62,0.00,,,0.05,,2013-02-14 20:42:00,
2013-02-14 15:52:00,51.0,38.0,29.83,South,182,5.0,11.0,61,0.00,,,0.04,,2013-02-14 20:52:00,
2013-02-14 16:02:00,51.0,38.0,29.83,South,182,5.0,11.0,61,0.00,,,0.04,,2013-02-14 21:02:00,
2013-02-14 16:11:00,51.0,38.0,29.83,South,182,5.0,11.0,61,0.00,,,0.04,,2013-02-14 21:11:00,
2013-02-14 16:21:00,52.0,37.0,29.84,SSE,159,3.0,14.0,56,0.00,,,0.04,,2013-02-14 21:21:00,
2013-02-14 16:31:00,51.0,37.0,29.85,WNW,300,4.0,10.0,58,0.00,,,0.04,,2013-02-14 21:31:00,
2013-02-14 16:42:00,51.0,37.0,29.85,WNW,300,4.0,10.0,58,0.00,,,0.04,,2013-02-14 21:42:00,
2013-02-14 16:52:00,52.0,38.0,29.85,WSW,254,3.0,15.0,58,0.00,,,0.03,,2013-02-14 21:52:00,
2013-02-14 17:02:00,51.0,37.0,29.85,West,269,3.0,14.0,59,0.00,,,0.03,,2013-02-14 22:02:00,
2013-02-14 17:11:00,50.0,37.0,29.85,West,276,4.0,8.0,60,0.00,,,0.03,,2013-02-14 22:11:00,
2013-02-14 17:21:00,50.0,37.0,29.85,West,276,4.0,8.0,60,0.00,,,0.03,,2013-02-14 22:21:00,
2013-02-14 17:32:00,50.0,35.0,29.86,West,274,7.0,15.0,57,0.00,,,0.03,,2013-02-14 22:32:00,
2013-02-14 17:42:00,50.0,35.0,29.86,West,274,7.0,15.0,57,0.00,,,0.03,,2013-02-14 22:42:00,
2013-02-14 17:52:00,50.0,35.0,29.87,WNW,286,6.0,15.0,56,0.00,,,0.02,,2013-02-14 22:52:00,
2013-02-14 18:01:00,50.0,35.0,29.87,WSW,250,6.0,11.0,56,0.00,,,0.02,,2013-02-14 23:01:00,
2013-02-14 18:11:00,50.0,35.0,29.87,WSW,250,6.0,11.0,56,0.00,,,0.02,,2013-02-14 23:11:00,
2013-02-14 18:21:00,50.0,35.0,29.87,WSW,250,6.0,11.0,56,0.00,,,0.02,,2013-02-14 23:21:00,
2013-02-14 18:32:00,50.0,35.0,29.87,WSW,250,6.0,11.0,56,0.00,,,0.02,,2013-02-14 23:32:00,
2013-02-14 18:42:00,50.0,35.0,29.87,WSW,250,6.0,11.0,56,0.00,,,0.02,,2013-02-14 23:42:00,
2013-02-14 18:52:00,48.0,36.0,29.89,WNW,285,5.0,8.0,62,0.00,,,0.02,,2013-02-14 23:52:00,
2013-02-14 19:02:00,48.0,36.0,29.90,West,278,2.0,5.0,64,0.00,,,0.02,,2013-02-15 00:02:00,
2013-02-14 19:11:00,48.0,36.0,29.90,West,278,2.0,5.0,64,0.00,,,0.02,,2013-02-15 00:11:00,
2013-02-14 19:22:00,48.0,36.0,29.90,West,278,2.0,5.0,64,0.00,,,0.02,,2013-02-15 00:22:00,
2013-02-14 19:32:00,48.0,36.0,29.90,West,278,2.0,5.0,64,0.00,,,0.02,,2013-02-15 00:32:00,
2013-02-14 19:42:00,48.0,36.0,29.90,West,278,2.0,5.0,64,0.00,,,0.02,,2013-02-15 00:42:00,
2013-02-14 19:52:00,46.0,35.0,29.92,West,276,2.0,4.0,66,0.00,,,0.02,,2013-02-15 00:52:00,
2013-02-14 20:02:00,46.0,35.0,29.92,West,276,2.0,4.0,66,0.00,,,0.02,,2013-02-15 01:02:00,
2013-02-14 20:11:00,46.0,35.0,29.92,West,276,2.0,4.0,66,0.00,,,0.02,,2013-02-15 01:11:00,
2013-02-14 20:21:00,46.0,35.0,29.93,NW,308,2.0,5.0,66,0.00,,,0.02,,2013-02-15 01:21:00,
2013-02-14 20:32:00,46.0,35.0,29.93,NW,308,2.0,5.0,66,0.00,,,0.02,,2013-02-15 01:32:00,
2013-02-14 20:42:00,46.0,35.0,29.93,NW,308,2.0,5.0,66,0.00,,,0.02,,2013-02-15 01:42:00,
2013-02-14 20:52:00,45.0,34.0,29.94,West,261,4.0,9.0,66,0.00,,,0.02,,2013-02-15 01:52:00,
2013-02-14 21:01:00,45.0,34.0,29.95,WNW,303,3.0,7.0,66,0.00,,,0.02,,2013-02-15 02:01:00,
2013-02-14 21:11:00,44.0,34.0,29.95,NNW,330,4.0,9.0,69,0.00,,,0.02,,2013-02-15 02:11:00,
2013-02-14 21:21:00,44.0,34.0,29.95,NNW,330,4.0,9.0,69,0.00,,,0.02,,2013-02-15 02:21:00,
2013-02-14 21:32:00,44.0,34.0,29.95,NNW,330,4.0,9.0,69,0.00,,,0.02,,2013-02-15 02:32:00,
2013-02-14 21:41:00,44.0,34.0,29.95,NNW,330,4.0,9.0,69,0.00,,,0.02,,2013-02-15 02:41:00,
2013-02-14 21:52:00,44.0,34.0,29.95,NNW,330,4.0,9.0,69,0.00,,,0.02,,2013-02-15 02:52:00,
2013-02-14 22:02:00,44.0,34.0,29.95,NNW,330,4.0,9.0,69,0.00,,,0.02,,2013-02-15 03:02:00,
2013-02-14 22:32:00,40.0,33.0,29.98,NNW,335,2.0,11.0,75,0.00,,,0.02,,2013-02-15 03:32:00,
2013-02-14 22:42:00,40.0,33.0,29.98,NNW,335,2.0,11.0,75,0.00,,,0.02,,2013-02-15 03:42:00,
2013-02-14 22:52:00,40.0,33.0,29.98,NNW,335,2.0,11.0,75,0.00,,,0.02,,2013-02-15 03:52:00,
2013-02-14 23:02:00,39.0,33.0,30.00,NW,309,1.0,4.0,78,0.00,,,0.02,,2013-02-15 04:02:00,
2013-02-14 23:11:00,39.0,33.0,30.00,NW,309,1.0,4.0,78,0.00,,,0.02,,2013-02-15 04:11:00,
2013-02-14 23:21:00,39.0,33.0,30.00,NW,309,1.0,4.0,78,0.00,,,0.02,,2013-02-15 04:21:00,
2013-02-14 23:32:00,38.0,32.0,30.00,WNW,296,1.0,6.0,80,0.00,,,0.02,,2013-02-15 04:32:00,
2013-02-14 23:42:00,38.0,32.0,30.00,WNW,296,1.0,6.0,80,0.00,,,0.02,,2013-02-15 04:42:00,
2013-02-14 23:52:00,38.0,32.0,30.00,NW,320,4.0,8.0,80,0.00,,,0.02,,2013-02-15 04:52:00,